Home   Weather   Bruchsal   Past weeks

Flag for Germany Past Weather in Bruchsal, Baden-Württemberg, Germany — Yesterday and Last 2 Weeks

41 °F


Feels Like: 41 °F
Forecast: 40 / 57 °F
Wind: 1 mph from North

Location: Mannheim City

Current Time: Oct 28, 2016 at 6:37:37 AM

Latest Report: Oct 28, 2016 at 5:50 AM

Visibility: 3 mi

Pressure: 30.54 "Hg

Humidity: 100%

Dew Point: 41 °F

Location of BruchsalLocation

Past Weather in Bruchsal — Graph


Bruchsal Temperature Yesterday

Maximum temperature yesterday: 57 °F (at 4:20 PM)
Minimum temperature yesterday: 37 °F (at 5:50 AM)
Average temperature yesterday: 49 °F

High & Low Weather Summary for the Past Weeks

High63 °F (Oct 15, 5:50 PM)100% (Oct 13, 5:20 AM)30.57 "Hg (Oct 13, 5:20 AM)
Low37 °F (Oct 27, 5:50 AM)54% (Oct 13, 2:50 PM)29.65 "Hg (Oct 14, 5:50 PM)
Average51 °F87%30.07 "Hg
* Reported Oct 12 8:20 PM — Oct 27 8:50 PM, Bruchsal, Weather by CustomWeather, © 2016

Note: Actual official high and low records may vary slightly from our data, if they occured in-between our weather recording intervals... More about our weather records


Bruchsal Weather History for the Previous 24 Hours

Scroll right to see more
Time TempWeatherWind HumidityBarometerVisibility
8:50 PM
Thu, Oct 27
54 °FOvercast.2 mph82%30.54 "HgN/A
8:20 PM54 °FOvercast.3 mph82%30.54 "HgN/A
7:50 PM54 °FOvercast.No wind88%30.54 "Hg6 mi
7:20 PM54 °FOvercast.1 mph82%30.54 "HgN/A
6:50 PM55 °FOvercast.3 mph77%30.54 "HgN/A
6:20 PM55 °FOvercast.3 mph77%30.54 "HgN/A
5:50 PM55 °FPartly sunny.3 mph77%30.54 "HgN/A
5:20 PM55 °FPartly sunny.2 mph77%30.54 "HgN/A
4:50 PM55 °FPartly sunny.1 mph72%30.54 "HgN/A
4:20 PM57 °FPartly sunny.2 mph63%30.54 "HgN/A
3:50 PM55 °FPartly sunny.2 mph82%30.54 "HgN/A
3:20 PM55 °FPartly sunny.3 mph82%30.54 "Hg6 mi
2:50 PM54 °FPartly sunny.3 mph88%30.54 "Hg6 mi
2:20 PM54 °FOvercast.5 mph82%30.54 "Hg6 mi
1:50 PM54 °FPartly sunny.3 mph77%30.54 "Hg6 mi
1:20 PM52 °FPartly sunny.3 mph88%30.57 "Hg6 mi
12:50 PM50 °FPartly sunny.5 mph94%30.57 "Hg6 mi
12:20 PM50 °FPartly sunny.5 mph100%30.57 "Hg5 mi
11:50 AM48 °FFog.5 mph100%30.57 "Hg3 mi
11:20 AM45 °FFog.6 mph100%30.57 "Hg2 mi
10:50 AM46 °FFog.5 mph100%30.57 "Hg3 mi
10:20 AM45 °FFog.5 mph100%30.54 "Hg3 mi
9:50 AM43 °FFog.3 mph100%30.54 "Hg3 mi
9:20 AM43 °FFog.3 mph100%30.54 "Hg3 mi
8:50 AM43 °FPartly sunny.No wind100%30.54 "Hg3 mi
8:20 AM41 °FSleet. Cloudy.3 mph100%30.51 "Hg2 mi
7:50 AM39 °FFog.2 mph100%30.51 "Hg1 mi
7:20 AM39 °FFog.1 mph100%30.51 "Hg3 mi
6:50 AM39 °FClear.2 mph100%30.51 "Hg3 mi
6:20 AM37 °FClear.2 mph100%30.51 "Hg4 mi
Weather by CustomWeather, © 2016

See weather overviewHow to use our weather pages